[[{"header":{"parameterUnit":"m.s-1","parameterCategory":1,"la1":30.2991,"la2":30.254,"lo1":-89.0895,"lo2":-89.0444,"dy":0.0017,"dx":0.0017,"nx":28,"ny":28,"refTime":"2024-08-16T21:00:00:Z","depth":0,"parameterNumber":2,"parameterNumberName":"U-component_of_WINDS"},"data":[0,0,0,0,0,0,0,0,0,0,0,0,0,0,0,0,0,0,0,0,0,0,0,0,0,0,0,0,0,0,0,0,0,0,0,0,0,0,0,0,0,0,0,0,0,0,0,0,0,0,0,0,0,0,0,0,0,0,1.159,1.1591,0,1.1756,1.1758,1.176,1.1835,1.1835,1.1835,1.1835,1.2008,1.2013,1.2017,0,0,0,0,0,0,0,0,0,0,0,0,0,1.1337,1.1342,1.1589,1.1592,1.1594,1.1756,1.1758,1.1761,1.1835,1.1835,1.1835,1.1834,1.2006,1.2012,1.2018,0,0,0,0,0,0,0,0,0,0,0,0,0,1.147,1.1343,1.1589,1.165,1.1657,1.1756,1.1758,1.1761,1.1835,1.1835,1.1835,1.1834,1.2004,1.2011,1.2019,1.2069,0,0,1.204,1.2044,0,0,0,0,0,0,0,0,1.1462,1.1479,1.1639,1.1646,1.1654,1.1775,1.1733,1.1864,1.1835,1.1768,1.1835,1.1834,1.1931,1.1944,1.1976,1.2077,1.2084,1.2041,1.2046,1.2049,1.2051,0,0,0,0,0,0,0,1.1453,1.1472,1.1656,1.1641,1.1651,1.167,1.1689,1.1758,1.1849,1.1774,1.178,1.1798,1.1935,1.1969,1.1981,1.2087,1.2041,1.2047,1.2052,1.2055,1.2238,1.2239,0,0,0,0,0,0,1.1433,1.1464,1.165,1.1661,1.1556,1.1675,1.1696,1.1736,1.1848,1.1865,1.1798,1.1801,1.1957,1.1972,1.1987,1.2054,1.2049,1.2055,1.2059,1.2238,1.2239,1.2239,0,0,0,0,0,0,1.1428,1.1449,1.1644,1.1564,1.159,1.168,1.1725,1.174,1.1774,1.1867,1.1884,1.1816,1.1957,1.1977,1.2048,1.2061,1.2059,1.2065,1.2237,1.2238,1.2239,1.2187,0,0,0,0,0,0,1.142,1.1447,1.1466,1.1564,1.1594,1.1701,1.1726,1.1743,1.1786,1.1791,1.1888,1.1904,1.1958,1.2037,1.2055,1.2071,1.2071,1.2236,1.2238,1.2239,1.2188,1.2186,1.2184,0,0,0,0,0,1.1411,1.1446,1.1467,1.1489,1.162,1.1701,1.1719,1.178,1.1787,1.1807,1.1867,1.1901,1.2056,1.2043,1.2065,1.2083,1.2236,1.2237,1.2238,1.2189,1.2187,1.2185,0,0,0,0,0,0,1.1348,1.146,1.1484,1.1552,1.1616,1.1714,1.1742,1.1775,1.184,1.1842,1.1916,1.1938,1.2002,1.205,1.2033,1.2138,1.2149,1.2155,1.2104,1.2103,1.2101,1.2088,1.2077,0,0,0,0,0,1.1342,1.1398,1.1492,1.1543,1.1574,1.1652,1.169,1.1731,1.1801,1.1829,1.1894,1.1962,1.2026,1.2067,1.2131,1.2195,1.2218,1.2218,1.2216,1.2214,1.2218,1.2256,1.2258,1.2243,1.2243,1.2243,0,0,1.133,1.1398,1.1429,1.1532,1.1587,1.1644,1.1675,1.1734,1.1777,1.1839,1.191,1.1959,1.204,1.2108,1.2141,1.2149,1.2227,1.2216,1.2213,1.2219,1.2258,1.2259,1.226,1.2244,1.2244,1.2244,0,0,1.1337,1.1394,1.1442,1.1497,1.1579,1.1631,1.1642,1.1735,1.1771,1.1843,1.189,1.1943,1.2052,1.2107,1.215,1.2178,1.2212,1.2197,1.2187,1.2223,1.2224,1.2226,1.2236,1.2239,1.22,1.22,1.22,0,1.1312,1.1399,1.1463,1.1519,1.1563,1.1621,1.1671,1.1721,1.182,1.185,1.1857,1.1995,1.2053,1.2135,1.2142,1.2174,1.219,1.2186,1.2219,1.2221,1.2223,1.2234,1.2238,1.2198,1.2198,1.2198,1.2199,0,1.1365,1.1425,1.1454,1.1548,1.1595,1.1648,1.172,1.176,1.1797,1.1848,1.1921,1.1993,1.2073,1.2095,1.2132,1.2182,1.2185,1.2204,1.2218,1.2221,1.2233,1.2237,1.2195,1.2195,1.2196,1.2197,0,0,1.1338,1.1466,1.1476,1.1519,1.1615,1.1663,1.1718,1.1795,1.1829,1.1895,1.1944,1.2034,1.2053,1.2101,1.2145,1.2177,1.2195,1.2193,1.2196,1.2191,1.2255,1.224,1.2243,1.2217,1.2218,1.2219,1.2248,0,1.1359,1.1461,1.1519,1.1597,1.1653,1.1708,1.1757,1.1821,1.187,1.1925,1.198,1.2043,1.2063,1.2092,1.2126,1.2185,1.2209,1.2184,1.2264,1.2266,1.2243,1.225,1.2234,1.2258,1.2253,1.2254,1.2255,0,1.1397,1.1462,1.1545,1.1634,1.166,1.1703,1.1778,1.183,1.1904,1.1938,1.1991,1.2034,1.2096,1.2103,1.2189,1.2171,1.2207,1.2241,1.2244,1.2254,1.2261,1.2261,1.2267,1.2271,1.2262,1.2262,1.2261,0,1.137,1.1478,1.1542,1.1578,1.1683,1.1712,1.1757,1.1831,1.1873,1.1939,1.1968,1.204,1.208,1.2136,1.2198,1.2198,1.2278,1.229,1.2308,1.2306,1.2323,1.2321,1.2336,1.2345,1.2345,1.2345,1.2345,0,1.1388,1.1437,1.1531,1.157,1.1627,1.1694,1.1748,1.1798,1.1863,1.1913,1.1965,1.2012,1.2091,1.2147,1.2196,1.226,1.2277,1.2307,1.2319,1.2303,1.2299,1.2328,1.2328,1.2346,1.2346,1.2345,1.2345,0,1.1367,1.1433,1.1506,1.16,1.1624,1.1662,1.1742,1.1783,1.1834,1.1897,1.1916,1.1997,1.2066,1.2133,1.2226,1.2259,1.2322,1.2339,1.2297,1.2304,1.2318,1.2316,1.2353,1.2361,1.2363,1.2363,1.2363,0,1.1375,1.1414,1.1511,1.1548,1.1592,1.1652,1.1696,1.1763,1.1806,1.1893,1.1923,1.1996,1.2057,1.2165,1.2232,1.2304,1.2323,1.233,1.2334,1.2315,1.2324,1.2321,1.2325,1.2329,1.2328,1.2328,1.2328,0,1.1381,1.1411,1.1472,1.1544,1.1595,1.1655,1.1717,1.1745,1.1824,1.187,1.1941,1.1989,1.2083,1.2154,1.2233,1.2281,1.2318,1.2326,1.2334,1.2318,1.2292,1.2307,1.2293,1.2325,1.2325,1.2326,1.2326,1.2326,1.1376,1.1413,1.1487,1.1553,1.1607,1.1664,1.1706,1.1763,1.1823,1.1904,1.194,1.2012,1.2085,1.2194,1.2241,1.2298,1.2308,1.2319,1.2322,1.2324,1.232,1.2282,1.2313,1.2313,1.2313,1.2313,1.2314,0,1.1385,1.1436,1.1496,1.1581,1.1633,1.1662,1.1732,1.1774,1.1836,1.1901,1.196,1.2041,1.2111,1.2183,1.2257,1.2289,1.2308,1.2306,1.2305,1.2315,1.2308,1.2294,1.229,1.229,1.229,1.229,1.229,1.229,1.1397,1.1461,1.15,1.1592,1.1643,1.1712,1.175,1.1803,1.1855,1.1943,1.2001,1.2047,1.2116,1.2195,1.226,1.2279,1.2305,1.2298,1.2322,1.2314,1.2316,1.2317,1.2305,1.2303,1.2303,1.2326,1.2326,1.2326]},{"header":{"parameterUnit":"m.s-1","parameterCategory":1,"la1":30.2991,"la2":30.254,"lo1":-89.0895,"lo2":-89.0444,"dy":0.0017,"dx":0.0017,"nx":28,"ny":28,"refTime":"2024-08-16T21:00:00:Z","depth":0,"parameterNumber":3,"parameterNumberName":"V-component_of_WINDS"},"data":[0,0,0,0,0,0,0,0,0,0,0,0,0,0,0,0,0,0,0,0,0,0,0,0,0,0,0,0,0,0,0,0,0,0,0,0,0,0,0,0,0,0,0,0,0,0,0,0,0,0,0,0,0,0,0,0,0,0,3.121,3.1211,0,3.1241,3.1241,3.1242,3.1252,3.1252,3.1252,3.1252,3.1279,3.128,3.1281,0,0,0,0,0,0,0,0,0,0,0,0,0,3.1154,3.1155,3.121,3.1211,3.1211,3.1241,3.1241,3.1242,3.1252,3.1252,3.1252,3.1252,3.1279,3.128,3.1281,0,0,0,0,0,0,0,0,0,0,0,0,0,3.1181,3.1156,3.121,3.122,3.1221,3.1241,3.1241,3.1242,3.1252,3.1252,3.1252,3.1252,3.1279,3.128,3.1281,3.1292,0,0,3.1285,3.1286,0,0,0,0,0,0,0,0,3.1179,3.1183,3.1218,3.122,3.1221,3.1243,3.1232,3.1258,3.1253,3.1241,3.1252,3.1252,3.1267,3.1269,3.1275,3.1293,3.1294,3.1285,3.1286,3.1286,3.1287,0,0,0,0,0,0,0,3.1178,3.1182,3.1222,3.1219,3.122,3.1221,3.1224,3.1237,3.1254,3.1242,3.1242,3.1246,3.1268,3.1274,3.1276,3.1295,3.1285,3.1286,3.1287,3.1287,3.1318,3.1318,0,0,0,0,0,0,3.1175,3.118,3.1221,3.1223,3.1199,3.1222,3.1226,3.1236,3.1254,3.1257,3.1246,3.1247,3.1272,3.1275,3.1277,3.1288,3.1286,3.1288,3.1288,3.1318,3.1318,3.1318,0,0,0,0,0,0,3.1174,3.1178,3.122,3.1202,3.1207,3.1223,3.1234,3.1237,3.1243,3.1258,3.126,3.125,3.1272,3.1275,3.1287,3.1289,3.1288,3.1289,3.1318,3.1318,3.1318,3.1311,0,0,0,0,0,0,3.1172,3.1178,3.1184,3.1202,3.1208,3.1232,3.1234,3.1237,3.1246,3.1246,3.1262,3.1264,3.1272,3.1285,3.1289,3.1291,3.129,3.1318,3.1318,3.1318,3.1312,3.1311,3.1311,0,0,0,0,0,3.117,3.1181,3.1185,3.1189,3.1217,3.1232,3.1236,3.1246,3.1246,3.1251,3.1259,3.1264,3.1288,3.1287,3.129,3.1293,3.1318,3.1318,3.1318,3.1312,3.1311,3.1311,0,0,0,0,0,0,3.1163,3.1184,3.1188,3.1206,3.1217,3.1234,3.1241,3.1246,3.1257,3.1257,3.1267,3.127,3.1281,3.1288,3.1286,3.1302,3.1303,3.1304,3.1297,3.1297,3.1296,3.1294,3.1291,0,0,0,0,0,3.1164,3.1177,3.1193,3.1207,3.1213,3.1226,3.1233,3.1239,3.1251,3.1256,3.1266,3.1276,3.1285,3.1291,3.1301,3.1312,3.1314,3.1315,3.1315,3.1315,3.1315,3.1318,3.1318,3.1319,3.1319,3.1319,0,0,3.1165,3.1178,3.1186,3.1206,3.1216,3.1226,3.123,3.1242,3.1249,3.1257,3.1269,3.1276,3.1287,3.1298,3.1303,3.1304,3.1315,3.1315,3.1315,3.1315,3.1318,3.1318,3.1318,3.1319,3.1319,3.1319,0,0,3.1173,3.1185,3.1197,3.1205,3.122,3.1228,3.123,3.1246,3.1251,3.1263,3.1268,3.1275,3.1293,3.1299,3.1305,3.131,3.1313,3.1313,3.1311,3.1314,3.1314,3.1314,3.1313,3.1313,3.1313,3.1313,3.1313,0,3.1173,3.1191,3.1201,3.1212,3.1219,3.1227,3.1236,3.1244,3.1261,3.1264,3.1265,3.1284,3.1293,3.1303,3.1304,3.1309,3.131,3.1311,3.1313,3.1313,3.1313,3.1313,3.1313,3.1313,3.1313,3.1313,3.1313,0,3.1188,3.1199,3.1206,3.1222,3.123,3.124,3.1249,3.1256,3.126,3.1267,3.1276,3.1286,3.1296,3.1299,3.1304,3.1309,3.1309,3.1311,3.1313,3.1313,3.1312,3.1312,3.1312,3.1312,3.1313,3.1313,0,0,3.1195,3.1213,3.1215,3.1221,3.1235,3.1243,3.1251,3.1262,3.1266,3.1275,3.1281,3.1293,3.1294,3.13,3.1306,3.1308,3.1307,3.1309,3.131,3.1307,3.131,3.1307,3.1307,3.1309,3.131,3.131,3.1308,0,3.1203,3.122,3.1228,3.124,3.1249,3.1254,3.1261,3.1269,3.1274,3.1281,3.1286,3.1294,3.1296,3.1299,3.1302,3.1307,3.1308,3.1307,3.1312,3.1312,3.1309,3.1307,3.1306,3.1304,3.1308,3.1308,3.1308,0,3.1215,3.1224,3.1238,3.1247,3.1251,3.1258,3.1265,3.1273,3.128,3.1283,3.1288,3.1293,3.1298,3.1299,3.1305,3.1304,3.1306,3.1309,3.1309,3.1309,3.131,3.1306,3.1304,3.1303,3.1309,3.1309,3.1309,0,3.1216,3.1231,3.1241,3.1245,3.1257,3.1261,3.1266,3.1273,3.1277,3.1284,3.1286,3.1293,3.1296,3.1299,3.1304,3.1305,3.1309,3.131,3.1309,3.1309,3.131,3.131,3.1307,3.1313,3.1313,3.1313,3.1313,0,3.1223,3.1231,3.124,3.1246,3.1253,3.126,3.1266,3.1271,3.1277,3.1281,3.1286,3.129,3.1296,3.1299,3.1303,3.1306,3.1307,3.1308,3.1309,3.1308,3.1307,3.1309,3.1308,3.1313,3.1313,3.1313,3.1313,0,3.1226,3.1233,3.1243,3.1252,3.1254,3.1259,3.1266,3.127,3.1274,3.1279,3.1281,3.1287,3.1291,3.1296,3.1302,3.1304,3.1306,3.1308,3.1304,3.1304,3.1302,3.1301,3.1299,3.1298,3.1306,3.1306,3.1306,0,3.123,3.1235,3.1245,3.1248,3.1253,3.1259,3.1263,3.1268,3.1272,3.1278,3.1281,3.1285,3.1289,3.1295,3.1298,3.1302,3.1303,3.1301,3.1303,3.13,3.13,3.1299,3.1299,3.1301,3.1301,3.1301,3.1301,0,3.1235,3.1237,3.1244,3.125,3.1254,3.126,3.1265,3.1267,3.1273,3.1276,3.128,3.1283,3.1288,3.1291,3.1294,3.1297,3.1299,3.13,3.13,3.1298,3.1294,3.1294,3.1301,3.13,3.13,3.13,3.13,3.13,3.1237,3.1241,3.1247,3.1253,3.1257,3.126,3.1264,3.1268,3.1272,3.1276,3.1279,3.1282,3.1285,3.129,3.1292,3.1293,3.1294,3.1294,3.1294,3.1293,3.1292,3.1295,3.1293,3.1294,3.1294,3.1294,3.1294,0,3.1241,3.1244,3.125,3.1256,3.1259,3.1261,3.1266,3.1268,3.1271,3.1274,3.1277,3.128,3.1282,3.1285,3.1287,3.1287,3.1287,3.1287,3.1287,3.1286,3.1292,3.1291,3.1286,3.1286,3.1286,3.1286,3.1286,3.1286,3.1243,3.1249,3.1251,3.1257,3.126,3.1264,3.1266,3.1268,3.127,3.1273,3.1275,3.1277,3.1279,3.128,3.1281,3.1282,3.1282,3.128,3.1281,3.1286,3.1286,3.1287,3.1287,3.1281,3.1281,3.1275,3.1275,3.1275]}]]